[[{"header":{"parameterUnit":"m.s-1","parameterCategory":1,"la1":30.2991,"la2":30.254,"lo1":-89.0895,"lo2":-89.0444,"dy":0.0017,"dx":0.0017,"nx":28,"ny":28,"refTime":"2023-10-17T09:00:00:Z","depth":0,"parameterNumber":2,"parameterNumberName":"U-component_of_WINDS"},"data":[0,0,0,0,0,0,0,0,0,0,0,0,0,0,0,0,0,0,0,0,0,0,0,0,0,0,0,0,0,0,0,0,0,0,0,0,0,0,0,0,0,0,0,0,0,0,0,0,0,0,0,0,0,0,0,0,0,0,-0.1237,-0.1238,0,-0.1287,-0.1288,-0.1288,-0.127,-0.1268,-0.1267,-0.1266,-0.1319,-0.1322,-0.1324,0,0,0,0,0,0,0,0,0,0,0,0,0,-0.1126,-0.1128,-0.1237,-0.1238,-0.1238,-0.1287,-0.1288,-0.1289,-0.127,-0.1268,-0.1267,-0.1266,-0.1318,-0.1321,-0.1324,0,0,0,0,0,0,0,0,0,0,0,0,0,-0.1175,-0.1128,-0.1237,-0.1235,-0.1235,-0.1287,-0.1288,-0.1289,-0.127,-0.1268,-0.1267,-0.1265,-0.1317,-0.1321,-0.1325,-0.1382,0,0,-0.1336,-0.1338,0,0,0,0,0,0,0,0,-0.1172,-0.1179,-0.1234,-0.1235,-0.1235,-0.127,-0.1268,-0.132,-0.1271,-0.1257,-0.1266,-0.1264,-0.1304,-0.1309,-0.1322,-0.1385,-0.1387,-0.1336,-0.1339,-0.134,-0.1341,0,0,0,0,0,0,0,-0.1169,-0.1177,-0.1257,-0.1235,-0.1236,-0.1232,-0.1237,-0.1278,-0.129,-0.1258,-0.1257,-0.1263,-0.1304,-0.1319,-0.1324,-0.1388,-0.1336,-0.134,-0.1342,-0.1343,-0.15,-0.1502,0,0,0,0,0,0,-0.1165,-0.1174,-0.1255,-0.1258,-0.1199,-0.1235,-0.1241,-0.1261,-0.1289,-0.1292,-0.1264,-0.1262,-0.1313,-0.1319,-0.1325,-0.1396,-0.134,-0.1344,-0.1346,-0.1498,-0.1501,-0.1503,0,0,0,0,0,0,-0.1163,-0.1172,-0.1253,-0.1216,-0.1226,-0.1239,-0.1262,-0.1263,-0.1277,-0.1294,-0.1296,-0.1277,-0.1312,-0.132,-0.1368,-0.1397,-0.1346,-0.1349,-0.1496,-0.1499,-0.1502,-0.1536,0,0,0,0,0,0,-0.1159,-0.1172,-0.1194,-0.1216,-0.1228,-0.1295,-0.1263,-0.1265,-0.1284,-0.1281,-0.1306,-0.1309,-0.1311,-0.1363,-0.1372,-0.1401,-0.1352,-0.1494,-0.1497,-0.1501,-0.1532,-0.1539,-0.1546,0,0,0,0,0,-0.1156,-0.1201,-0.1195,-0.1205,-0.1255,-0.1297,-0.1304,-0.1305,-0.1286,-0.1308,-0.1319,-0.1308,-0.1392,-0.1368,-0.1378,-0.1409,-0.1492,-0.1496,-0.1501,-0.1529,-0.1538,-0.1545,0,0,0,0,0,0,-0.1182,-0.1204,-0.1197,-0.1252,-0.1273,-0.1294,-0.1322,-0.1314,-0.1342,-0.1338,-0.1339,-0.1345,-0.1395,-0.1406,-0.1379,-0.1466,-0.1439,-0.1446,-0.1457,-0.1466,-0.1472,-0.147,-0.1355,0,0,0,0,0,-0.1194,-0.1226,-0.1243,-0.129,-0.13,-0.1309,-0.1328,-0.1327,-0.1349,-0.1358,-0.1372,-0.1394,-0.1425,-0.1446,-0.1475,-0.1533,-0.1539,-0.1559,-0.1566,-0.1571,-0.1578,-0.1609,-0.1619,-0.1517,-0.1517,-0.1517,0,0,-0.122,-0.1236,-0.1256,-0.1296,-0.1312,-0.1345,-0.1317,-0.1353,-0.1378,-0.1363,-0.141,-0.1421,-0.1445,-0.1499,-0.1523,-0.151,-0.1606,-0.1577,-0.1581,-0.1584,-0.1615,-0.1625,-0.1633,-0.152,-0.152,-0.1519,0,0,-0.1284,-0.1299,-0.1339,-0.1356,-0.138,-0.1385,-0.1395,-0.1417,-0.1424,-0.147,-0.146,-0.1489,-0.1543,-0.1561,-0.1577,-0.1647,-0.1638,-0.1656,-0.1692,-0.1724,-0.1732,-0.1739,-0.1765,-0.1774,-0.1662,-0.1662,-0.1662,0,-0.1313,-0.1363,-0.1361,-0.1399,-0.1417,-0.1403,-0.1445,-0.1461,-0.1494,-0.1507,-0.1491,-0.1558,-0.1574,-0.1631,-0.1648,-0.1661,-0.1673,-0.1654,-0.173,-0.1738,-0.1744,-0.1769,-0.1779,-0.1664,-0.1664,-0.1664,-0.1663,0,-0.1398,-0.1432,-0.1462,-0.1494,-0.1515,-0.1554,-0.1559,-0.158,-0.1577,-0.1584,-0.1632,-0.165,-0.1683,-0.1696,-0.1693,-0.1753,-0.1745,-0.173,-0.1703,-0.1756,-0.178,-0.1789,-0.1667,-0.1666,-0.1666,-0.1665,0,0,-0.1483,-0.1512,-0.1523,-0.1538,-0.1563,-0.1589,-0.1628,-0.1659,-0.1678,-0.1701,-0.1734,-0.1779,-0.1765,-0.1783,-0.1782,-0.1809,-0.1865,-0.1791,-0.1792,-0.1806,-0.1933,-0.1946,-0.1957,-0.1858,-0.186,-0.1861,-0.1932,0,-0.155,-0.1617,-0.1617,-0.1679,-0.1711,-0.1698,-0.1732,-0.1751,-0.1758,-0.1786,-0.1794,-0.1827,-0.1805,-0.1816,-0.1842,-0.1852,-0.1891,-0.1847,-0.189,-0.1891,-0.1886,-0.1969,-0.1983,-0.2048,-0.1941,-0.1942,-0.1943,0,-0.1638,-0.1663,-0.1729,-0.1749,-0.1763,-0.1793,-0.1822,-0.1849,-0.187,-0.1874,-0.1893,-0.1888,-0.1927,-0.1897,-0.1952,-0.1922,-0.1939,-0.1947,-0.1949,-0.1955,-0.1922,-0.1979,-0.2069,-0.208,-0.1957,-0.1956,-0.1955,0,-0.1696,-0.1746,-0.1791,-0.1804,-0.1828,-0.185,-0.1861,-0.1881,-0.19,-0.1925,-0.1937,-0.1967,-0.1984,-0.2006,-0.2009,-0.1987,-0.2064,-0.2035,-0.2069,-0.2069,-0.2088,-0.2088,-0.2185,-0.2096,-0.2096,-0.2095,-0.2095,0,-0.1772,-0.1813,-0.1818,-0.1846,-0.1892,-0.189,-0.1935,-0.1945,-0.1962,-0.1992,-0.1982,-0.2011,-0.2011,-0.2041,-0.2043,-0.2088,-0.2095,-0.21,-0.21,-0.2102,-0.2102,-0.2115,-0.2111,-0.2098,-0.2097,-0.2097,-0.2096,0,-0.1845,-0.1849,-0.1899,-0.1917,-0.1923,-0.1956,-0.1972,-0.1999,-0.2005,-0.2043,-0.2052,-0.2061,-0.2095,-0.2099,-0.2139,-0.214,-0.2195,-0.219,-0.2188,-0.2188,-0.2223,-0.2221,-0.2334,-0.235,-0.2249,-0.225,-0.225,0,-0.1895,-0.1926,-0.1948,-0.1967,-0.198,-0.2011,-0.203,-0.2029,-0.205,-0.2076,-0.21,-0.2133,-0.2159,-0.2214,-0.2224,-0.2255,-0.2251,-0.2288,-0.2256,-0.2257,-0.2254,-0.2253,-0.2256,-0.2296,-0.2297,-0.2298,-0.2299,0,-0.1984,-0.1984,-0.2012,-0.2041,-0.2064,-0.2086,-0.2108,-0.2124,-0.2126,-0.2149,-0.2184,-0.2204,-0.2244,-0.2277,-0.2307,-0.2318,-0.231,-0.2308,-0.2318,-0.2322,-0.232,-0.2323,-0.2208,-0.2306,-0.2306,-0.2305,-0.2305,-0.2304,-0.2048,-0.2075,-0.2095,-0.2126,-0.2142,-0.2162,-0.2189,-0.2197,-0.2225,-0.2258,-0.2255,-0.2293,-0.2313,-0.2352,-0.2366,-0.2396,-0.2383,-0.2397,-0.2401,-0.2405,-0.241,-0.2313,-0.2401,-0.24,-0.24,-0.24,-0.24,0,-0.2138,-0.2149,-0.2178,-0.2208,-0.2233,-0.222,-0.2243,-0.2265,-0.2298,-0.2317,-0.2343,-0.2383,-0.2414,-0.2426,-0.2457,-0.2479,-0.2475,-0.2487,-0.2487,-0.249,-0.2418,-0.2407,-0.2489,-0.2489,-0.2489,-0.2489,-0.2489,-0.2489,-0.2187,-0.2233,-0.2236,-0.2289,-0.23,-0.2338,-0.2352,-0.237,-0.2385,-0.243,-0.2456,-0.2463,-0.2479,-0.2511,-0.254,-0.2542,-0.2555,-0.2569,-0.257,-0.2504,-0.2495,-0.2486,-0.2476,-0.2571,-0.2571,-0.2639,-0.264,-0.2641]},{"header":{"parameterUnit":"m.s-1","parameterCategory":1,"la1":30.2991,"la2":30.254,"lo1":-89.0895,"lo2":-89.0444,"dy":0.0017,"dx":0.0017,"nx":28,"ny":28,"refTime":"2023-10-17T09:00:00:Z","depth":0,"parameterNumber":3,"parameterNumberName":"V-component_of_WINDS"},"data":[0,0,0,0,0,0,0,0,0,0,0,0,0,0,0,0,0,0,0,0,0,0,0,0,0,0,0,0,0,0,0,0,0,0,0,0,0,0,0,0,0,0,0,0,0,0,0,0,0,0,0,0,0,0,0,0,0,0,-4.5899,-4.5901,0,-4.6023,-4.6024,-4.6025,-4.5978,-4.5975,-4.5972,-4.5969,-4.6091,-4.6097,-4.6102,0,0,0,0,0,0,0,0,0,0,0,0,0,-4.5618,-4.5623,-4.5899,-4.5901,-4.5902,-4.6022,-4.6024,-4.6026,-4.5978,-4.5975,-4.5971,-4.5968,-4.6089,-4.6096,-4.6103,0,0,0,0,0,0,0,0,0,0,0,0,0,-4.574,-4.5625,-4.5899,-4.5893,-4.5894,-4.6022,-4.6024,-4.6026,-4.5979,-4.5975,-4.597,-4.5967,-4.6087,-4.6095,-4.6104,-4.6244,0,0,-4.6131,-4.6135,0,0,0,0,0,0,0,0,-4.5733,-4.5751,-4.5892,-4.5894,-4.5895,-4.5981,-4.5969,-4.6099,-4.598,-4.5947,-4.5969,-4.5964,-4.6057,-4.6068,-4.6101,-4.6249,-4.6254,-4.6132,-4.6137,-4.6141,-4.6143,0,0,0,0,0,0,0,-4.5725,-4.5745,-4.5948,-4.5894,-4.5896,-4.5883,-4.5896,-4.5994,-4.6024,-4.5949,-4.5946,-4.5961,-4.6057,-4.6092,-4.6103,-4.6256,-4.6131,-4.6139,-4.6145,-4.6148,-4.6524,-4.6529,0,0,0,0,0,0,-4.5717,-4.5738,-4.5944,-4.5951,-4.5802,-4.5891,-4.5906,-4.5957,-4.6023,-4.6029,-4.5965,-4.5959,-4.6079,-4.6093,-4.6107,-4.6274,-4.6141,-4.6149,-4.6154,-4.652,-4.6526,-4.6531,0,0,0,0,0,0,-4.5711,-4.5735,-4.5939,-4.5844,-4.5869,-4.5901,-4.5959,-4.5962,-4.5997,-4.6035,-4.604,-4.5996,-4.6076,-4.6095,-4.621,-4.6278,-4.6153,-4.6161,-4.6514,-4.6522,-4.6528,-4.661,0,0,0,0,0,0,-4.5703,-4.5734,-4.5788,-4.5846,-4.5874,-4.6042,-4.5963,-4.5967,-4.6013,-4.6006,-4.6065,-4.6071,-4.6075,-4.6197,-4.6219,-4.6288,-4.6168,-4.6508,-4.6518,-4.6526,-4.6602,-4.6619,-4.6635,0,0,0,0,0,-4.5693,-4.5806,-4.5791,-4.5816,-4.5943,-4.6046,-4.6062,-4.6065,-4.6019,-4.6073,-4.6097,-4.6069,-4.6267,-4.621,-4.6233,-4.6306,-4.6504,-4.6515,-4.6525,-4.6594,-4.6616,-4.6634,0,0,0,0,0,0,-4.5753,-4.5813,-4.5798,-4.5933,-4.5985,-4.6037,-4.6106,-4.6088,-4.6153,-4.6144,-4.6144,-4.6157,-4.6276,-4.6303,-4.6237,-4.6444,-4.6378,-4.6394,-4.6423,-4.6444,-4.646,-4.645,-4.6175,0,0,0,0,0,-4.5783,-4.5862,-4.5909,-4.6024,-4.6051,-4.6074,-4.6119,-4.6117,-4.617,-4.6191,-4.6224,-4.6276,-4.6349,-4.6398,-4.6468,-4.6605,-4.6617,-4.6667,-4.6683,-4.6697,-4.671,-4.6784,-4.6807,-4.6565,-4.6565,-4.6565,0,0,-4.5844,-4.5886,-4.5936,-4.6037,-4.6077,-4.6158,-4.6093,-4.6181,-4.6241,-4.6204,-4.6316,-4.6342,-4.6399,-4.6526,-4.6583,-4.6551,-4.6779,-4.671,-4.672,-4.6727,-4.6797,-4.682,-4.684,-4.6573,-4.6571,-4.657,0,0,-4.5996,-4.6036,-4.6136,-4.6178,-4.624,-4.6255,-4.6278,-4.6334,-4.6351,-4.6463,-4.6437,-4.6507,-4.6634,-4.6676,-4.6714,-4.6882,-4.6858,-4.6905,-4.699,-4.7062,-4.7081,-4.7098,-4.7157,-4.7178,-4.6918,-4.6918,-4.6918,0,-4.6063,-4.6185,-4.6189,-4.628,-4.6324,-4.6297,-4.6397,-4.6436,-4.6518,-4.6548,-4.6512,-4.6671,-4.6708,-4.6844,-4.6885,-4.6917,-4.6943,-4.6898,-4.7078,-4.7095,-4.7111,-4.7167,-4.719,-4.6923,-4.6923,-4.6922,-4.6922,0,-4.6265,-4.635,-4.6422,-4.6503,-4.6556,-4.6651,-4.6667,-4.672,-4.6714,-4.6732,-4.6846,-4.6889,-4.6967,-4.6999,-4.6993,-4.7134,-4.7113,-4.7077,-4.7011,-4.7139,-4.7192,-4.7214,-4.6931,-4.6929,-4.6927,-4.6926,0,0,-4.6458,-4.654,-4.6567,-4.6603,-4.6669,-4.6734,-4.6827,-4.6905,-4.695,-4.7007,-4.7084,-4.7193,-4.716,-4.7203,-4.7202,-4.7265,-4.7395,-4.7222,-4.7223,-4.7252,-4.7552,-4.7578,-4.7603,-4.7379,-4.7384,-4.7387,-4.7547,0,-4.6615,-4.678,-4.6786,-4.6936,-4.7014,-4.6989,-4.7069,-4.7118,-4.7138,-4.7205,-4.7226,-4.7303,-4.7255,-4.7281,-4.7342,-4.7366,-4.7455,-4.7355,-4.745,-4.7453,-4.7436,-4.7631,-4.7658,-4.7807,-4.7568,-4.7571,-4.7574,0,-4.682,-4.6885,-4.7043,-4.7098,-4.7131,-4.7204,-4.7276,-4.7342,-4.7396,-4.7405,-4.7454,-4.7443,-4.7536,-4.7468,-4.7595,-4.7527,-4.7566,-4.7584,-4.759,-4.7598,-4.7521,-4.7644,-4.7855,-4.7877,-4.7606,-4.7604,-4.7602,0,-4.6944,-4.7071,-4.7182,-4.7214,-4.7281,-4.7333,-4.7363,-4.7413,-4.746,-4.7522,-4.7551,-4.7623,-4.7662,-4.7717,-4.7725,-4.7675,-4.7854,-4.7786,-4.7863,-4.7863,-4.7901,-4.7899,-4.8121,-4.7928,-4.7927,-4.7927,-4.7926,0,-4.7119,-4.7216,-4.7239,-4.7308,-4.7416,-4.7421,-4.7527,-4.7553,-4.7598,-4.7669,-4.7651,-4.7719,-4.7726,-4.7795,-4.7802,-4.7906,-4.7924,-4.7933,-4.7934,-4.7935,-4.7933,-4.796,-4.7949,-4.7933,-4.7931,-4.793,-4.7929,0,-4.7276,-4.7295,-4.7415,-4.7469,-4.7485,-4.7562,-4.7607,-4.7672,-4.769,-4.7781,-4.7802,-4.7829,-4.791,-4.7924,-4.8017,-4.8022,-4.8147,-4.8137,-4.8129,-4.8128,-4.8204,-4.8196,-4.8451,-4.8484,-4.8269,-4.8271,-4.8273,0,-4.7386,-4.7461,-4.7523,-4.7571,-4.7604,-4.768,-4.7728,-4.7735,-4.7785,-4.7853,-4.7909,-4.7987,-4.8051,-4.818,-4.8207,-4.8279,-4.827,-4.8354,-4.828,-4.8279,-4.8271,-4.8266,-4.8273,-4.8368,-4.837,-4.8372,-4.8374,0,-4.7578,-4.7584,-4.7654,-4.7729,-4.7786,-4.7844,-4.7899,-4.7938,-4.7953,-4.8009,-4.8092,-4.8142,-4.8238,-4.8316,-4.8388,-4.8416,-4.8398,-4.8397,-4.8419,-4.842,-4.8412,-4.8417,-4.8167,-4.8391,-4.8389,-4.8388,-4.8387,-4.8386,-4.7715,-4.778,-4.7834,-4.7913,-4.7955,-4.8007,-4.807,-4.8096,-4.8166,-4.8247,-4.8246,-4.8336,-4.8388,-4.8482,-4.8516,-4.8585,-4.8558,-4.8589,-4.8597,-4.8605,-4.8612,-4.8402,-4.8598,-4.8598,-4.8597,-4.8597,-4.8597,0,-4.7906,-4.794,-4.8012,-4.809,-4.8152,-4.813,-4.819,-4.8242,-4.8323,-4.8373,-4.8436,-4.8531,-4.8606,-4.864,-4.8714,-4.8763,-4.8756,-4.8782,-4.8778,-4.8785,-4.8632,-4.8606,-4.8786,-4.8786,-4.8786,-4.8786,-4.8786,-4.8786,-4.8013,-4.8122,-4.8134,-4.8263,-4.8296,-4.8386,-4.8422,-4.8469,-4.8509,-4.8616,-4.8679,-4.8701,-4.8744,-4.8821,-4.8889,-4.8897,-4.8924,-4.8954,-4.8958,-4.8815,-4.8796,-4.8777,-4.8753,-4.8961,-4.8961,-4.9105,-4.9106,-4.9107]}]]